Time,TemperatureF,DewpointF,PressureIn,WindDirection,WindDirectionDegrees,WindSpeedMPH,WindSpeedGustMPH,Humidity,HourlyPrecipIn,Conditions,Clouds,dailyrainin,SoftwareType,DateUTC
2013-04-19 00:00:00,16.0,-99.9,-100.00,North,0,0.0,0.0,-999,-99.99,,,-99.99,,2013-04-19 06:00:00,
2013-04-19 01:00:00,15.0,-99.9,-100.00,North,0,0.0,0.0,-999,-99.99,,,0.00,,2013-04-19 07:00:00,
2013-04-19 01:52:00,15.0,-99.9,-100.00,North,-999,-999.0,-999.0,-999,-99.99,,,0.00,,2013-04-19 07:52:00,
2013-04-19 02:00:00,13.0,-99.9,-100.00,North,360,0.0,0.0,-999,-99.99,,,0.00,,2013-04-19 08:00:00,
2013-04-19 03:00:00,13.0,-99.9,-100.00,North,360,0.0,0.0,-999,-99.99,,,0.00,,2013-04-19 09:00:00,
2013-04-19 04:00:00,12.0,-99.9,-100.00,North,0,0.0,0.0,-999,-99.99,,,0.00,,2013-04-19 10:00:00,
2013-04-19 05:00:00,13.0,-99.9,-100.00,North,-999,-999.0,-999.0,-999,-99.99,,,0.00,,2013-04-19 11:00:00,
2013-04-19 06:00:00,13.0,-99.9,-100.00,North,360,0.0,0.0,-999,-99.99,,,0.00,,2013-04-19 12:00:00,
2013-04-19 07:00:00,15.0,-99.9,-100.00,North,360,0.0,0.0,-999,-99.99,,,0.00,,2013-04-19 13:00:00,
2013-04-19 08:00:00,21.0,-99.9,-100.00,North,360,0.0,0.0,-999,-99.99,,,0.00,,2013-04-19 14:00:00,
2013-04-19 09:00:00,28.0,-99.9,-100.00,North,0,0.0,0.0,-999,-99.99,,,0.00,,2013-04-19 15:00:00,
2013-04-19 10:00:00,33.0,-99.9,-100.00,North,1,1.0,9.0,-999,-99.99,,,0.00,,2013-04-19 16:00:00,
2013-04-19 11:00:00,35.0,-99.9,-100.00,North,3,6.0,14.0,-999,-99.99,,,0.00,,2013-04-19 17:00:00,
2013-04-19 12:00:00,33.0,-99.9,-100.00,North,4,6.0,12.0,-999,-99.99,,,0.00,,2013-04-19 18:00:00,
2013-04-19 13:00:00,35.0,-99.9,-100.00,North,4,4.0,12.0,-999,-99.99,,,0.00,,2013-04-19 19:00:00,
2013-04-19 14:00:00,35.0,-99.9,-100.00,North,4,4.0,11.0,-999,-99.99,,,0.00,,2013-04-19 20:00:00,
2013-04-19 15:00:00,37.0,-99.9,-100.00,North,4,4.0,12.0,-999,-99.99,,,0.00,,2013-04-19 21:00:00,
2013-04-19 16:00:00,38.0,-99.9,-100.00,North,3,5.0,17.0,-999,-99.99,,,0.00,,2013-04-19 22:00:00,
2013-04-19 17:00:00,36.0,-99.9,-100.00,North,-999,-999.0,-999.0,-999,-99.99,,,0.00,,2013-04-19 23:00:00,
2013-04-19 18:00:00,36.0,-99.9,-100.00,North,2,4.0,11.0,-999,-99.99,,,0.00,,2013-04-20 00:00:00,
2013-04-19 19:00:00,35.0,-99.9,-100.00,North,-999,-999.0,-999.0,-999,-99.99,,,0.00,,2013-04-20 01:00:00,
2013-04-19 19:52:00,35.0,-99.9,-100.00,North,-999,-999.0,-999.0,-999,-99.99,,,0.00,,2013-04-20 01:52:00,
2013-04-19 20:00:00,33.0,-99.9,-100.00,North,-999,-999.0,-999.0,-999,-99.99,,,0.00,,2013-04-20 02:00:00,
2013-04-19 21:00:00,32.0,-99.9,-100.00,North,2,1.0,4.0,-999,-99.99,,,0.00,,2013-04-20 03:00:00,
2013-04-19 22:00:00,31.0,-99.9,-100.00,North,-999,-999.0,-999.0,-999,-99.99,,,0.00,,2013-04-20 04:00:00,
2013-04-19 23:00:00,29.0,-99.9,-100.00,North,2,0.0,0.0,-999,-99.99,,,0.00,,2013-04-20 05:00:00,